This is the latest recevied weather packets stored in our database for station/object KB1QVF. If no packets are shown the sender has not sent any weather packets the latest 10 day(s).
| Time | Temp. | Humidity | Pressure | Rain* | Wind** | Luminosity | Snow |
|---|---|---|---|---|---|---|---|
| 1777991829 | 18.89° C | 59% | 1012.8 hPa | 0 mm | - | 299 W/m² | - |
| 1777991526 | 18.89° C | 61% | 1012.9 hPa | 0 mm | - | 286 W/m² | - |
| 1777991223 | 18.33° C | 61% | 1012.8 hPa | 0 mm | - | 296 W/m² | - |
| 1777990920 | 18.33° C | 62% | 1012.9 hPa | 0 mm | - | 217 W/m² | - |
| 1777990618 | 18.33° C | 61% | 1013 hPa | 0 mm | - | 251 W/m² | - |
| 1777990011 | 18.33° C | 61% | 1013.2 hPa | 0 mm | - | 143 W/m² | - |
| 1777989708 | 18.33° C | 61% | 1013.2 hPa | 0 mm | - | 139 W/m² | - |
| 1777989404 | 18.33° C | 61% | 1013.1 hPa | 0 mm | - | 179 W/m² | - |
| 1777989101 | 18.33° C | 61% | 1013.2 hPa | 0 mm | - | 278 W/m² | - |
| 1777988796 | 17.78° C | 63% | 1012.9 hPa | 0 mm | - | 340 W/m² | - |
| 1777988494 | 17.78° C | 63% | 1013.1 hPa | 0 mm | - | 341 W/m² | - |
| 1777988191 | 17.78° C | 64% | 1013 hPa | 0 mm | - | 278 W/m² | - |
| 1777987887 | 17.22° C | 65% | 1013 hPa | 0 mm | - | 478 W/m² | - |
| 1777987583 | 17.22° C | 64% | 1013.2 hPa | 0 mm | - | 240 W/m² | - |
| 1777987281 | 17.22° C | 64% | 1013.2 hPa | 0 mm | - | 466 W/m² | - |
| 1777986978 | 17.22° C | 65% | 1013.1 hPa | 0 mm | - | 226 W/m² | - |
| 1777986676 | 16.67° C | 66% | 1013.4 hPa | 0 mm | - | 190 W/m² | - |
| 1777986373 | 16.67° C | 65% | 1013.4 hPa | 0 mm | - | 381 W/m² | - |
| 1777986072 | 16.67° C | 67% | 1013.3 hPa | 0 mm | - | 281 W/m² | - |
| 1777985768 | 16.67° C | 68% | 1013.3 hPa | 0 mm | - | 298 W/m² | - |
| 1777985465 | 16.11° C | 69% | 1013.1 hPa | 0 mm | - | 162 W/m² | - |
| 1777985161 | 16.11° C | 68% | 1013.2 hPa | 0 mm | - | 196 W/m² | - |
| 1777984857 | 16.11° C | 69% | 1013.2 hPa | 0 mm | - | 407 W/m² | - |
| 1777984554 | 16.11° C | 69% | 1013.2 hPa | 0 mm | - | 406 W/m² | - |
| 1777984250 | 15.56° C | 70% | 1013.3 hPa | 0 mm | - | 185 W/m² | - |
* Rain latest hour (hover to see other rain measurements)
** Current wind speed in m/s (hover to see current wind gust speed)